Location: Seattle
(47.6064°N, 122.3308°W)
Time: 08:15:31
(UTC-08:00)

Tiros 1 - All Passes

Search period start: 26 November 2020 00:00
Search period end: 06 December 2020 00:00
Orbit: 630 x 664 km, 48.4° (Epoch: 25 November)

Date Brightness Start Highest point End Pass type
(mag) Time Alt. Az. Time Alt. Az. Time Alt. Az.
26 Nov - 15:44:28 10° SSW 15:48:25 26° SE 15:52:22 10° E daylight
26 Nov - 17:25:23 10° WSW 17:30:11 73° SSE 17:34:56 10° ENE visible
26 Nov - 19:07:38 10° W 19:12:27 80° N 19:17:13 10° E visible
26 Nov - 20:49:57 10° WNW 20:54:41 66° SSW 20:59:21 10° ESE visible
26 Nov - 22:32:43 10° W 22:36:20 22° SW 22:39:55 10° S night (unlit)
27 Nov - 14:30:51 10° SSE 14:32:47 12° SE 14:34:44 10° ESE daylight
27 Nov - 16:09:34 10° SW 16:14:08 45° SSE 16:18:42 10° E daylight
27 Nov - 17:51:22 10° W 17:56:11 87° NNW 18:00:59 10° E visible
27 Nov - 19:33:43 10° W 19:38:32 89° N 19:43:17 10° ESE visible
27 Nov - 21:16:04 10° W 21:20:33 41° SSW 21:24:58 10° SE visible
27 Nov - 23:00:43 10° WSW 23:01:48 11° SW 23:02:53 10° SW night (unlit)
28 Nov - 14:54:27 10° SSW 14:58:18 24° SE 15:02:09 10° E daylight
28 Nov - 16:35:14 10° WSW 16:40:01 70° SSE 16:44:47 10° ENE daylight
28 Nov - 18:17:28 10° W 18:22:17 80° N 18:27:04 10° E visible
28 Nov - 19:59:47 10° WNW 20:04:32 69° SSW 20:09:14 10° ESE visible
28 Nov - 21:42:28 10° W 21:46:13 23° SW 21:49:57 10° SSE night (unlit)
29 Nov - 13:41:12 10° SSE 13:42:42 11° SE 13:44:11 10° ESE daylight
29 Nov - 15:19:28 10° SW 15:24:00 42° SSE 15:28:31 10° E daylight
29 Nov - 17:01:12 10° W 17:06:02 89° N 17:10:50 10° E visible
29 Nov - 18:43:33 10° W 18:48:22 87° N 18:53:08 10° E visible
29 Nov - 20:25:53 10° W 20:30:25 44° SSW 20:34:53 10° SE visible
29 Nov - 22:10:01 10° WSW 22:11:43 12° SW 22:13:25 10° SSW night (unlit)
30 Nov - 14:04:27 10° SSW 14:08:11 23° SE 14:11:56 10° E daylight
30 Nov - 15:45:05 10° WSW 15:49:52 67° SSE 15:54:38 10° ENE daylight
30 Nov - 17:27:17 10° W 17:32:07 80° N 17:36:54 10° E visible
30 Nov - 19:09:36 10° WNW 19:14:23 72° SSW 19:19:07 10° ESE visible
30 Nov - 20:52:14 10° W 20:56:07 25° SW 20:59:58 10° SSE visible
01 Dec - 12:51:52 10° SE 12:52:36 10° SE 12:53:20 10° ESE daylight
01 Dec - 14:29:22 10° SW 14:33:51 40° SSE 14:38:21 10° E daylight
01 Dec - 16:11:01 10° WSW 16:15:52 90° SSE 16:20:40 10° E daylight
01 Dec - 17:53:22 10° W 17:58:13 86° NNE 18:02:59 10° E visible
01 Dec - 19:35:42 10° W 19:40:17 46° SSW 19:44:48 10° SE visible
01 Dec - 21:19:30 10° WSW 21:21:38 13° SW 21:23:44 10° SSW visible
02 Dec - 13:14:28 10° S 13:18:04 21° SE 13:21:41 10° E daylight
02 Dec - 14:54:57 10° WSW 14:59:42 64° SSE 15:04:28 10° ENE daylight
02 Dec - 16:37:06 10° W 16:41:57 81° N 16:46:45 10° E daylight
02 Dec - 18:19:26 10° WNW 18:24:14 75° SSW 18:28:59 10° ESE visible
02 Dec - 20:02:00 10° W 20:06:00 27° SW 20:09:58 10° SSE visible
03 Dec - 13:39:18 10° SW 13:43:43 38° SSE 13:48:10 10° E daylight
03 Dec - 15:20:51 10° WSW 15:25:42 88° SSE 15:30:31 10° E daylight
03 Dec - 17:03:12 10° W 17:08:02 85° N 17:12:50 10° E visible
03 Dec - 18:45:30 10° WNW 18:50:08 49° SSW 18:54:43 10° SE visible
03 Dec - 20:29:04 10° WSW 20:31:32 14° SW 20:33:59 10° SSW visible
04 Dec - 12:24:30 10° S 12:27:57 20° SE 12:31:25 10° E daylight
04 Dec - 14:04:48 10° WSW 14:09:33 62° SSE 14:14:18 10° ENE daylight
04 Dec - 15:46:55 10° W 15:51:46 81° N 15:56:35 10° E daylight
04 Dec - 17:29:15 10° WNW 17:34:04 77° SSW 17:38:51 10° ESE visible
04 Dec - 19:11:46 10° W 19:15:53 29° SW 19:19:57 10° SSE visible
05 Dec - 12:49:13 10° SSW 12:53:35 36° SSE 12:57:59 10° E daylight
05 Dec - 14:30:42 10° WSW 14:35:31 86° SSE 14:40:22 10° ENE daylight
05 Dec - 16:13:01 10° W 16:17:52 84° N 16:22:40 10° E daylight
05 Dec - 17:55:19 10° WNW 17:59:59 52° SSW 18:04:37 10° SE visible
05 Dec - 19:38:41 10° W 19:41:26 15° SW 19:44:10 10° S visible
